Date,TemperatureHighF,TemperatureAvgF,TemperatureLowF,DewpointHighF,DewpointAvgF,DewpointLowF,HumidityHigh,HumidityAvg,HumidityLow,PressureMaxIn,PressureMinIn,WindSpeedMaxMPH,WindSpeedAvgMPH,GustSpeedMaxMPH,PrecipitationSumIn
2013-2-1,21,14,8,4,-2,-8,64,49,41,30.70,30.38,17,7,23,0.00
2013-2-2,32,26,16,27,19,4,87,74,53,30.53,30.26,17,7,20,0.00
2013-2-3,31,31,31,24,24,24,75,75,75,30.28,30.28,4,4,8,0.00
2013-2-4,39,33,24,34,26,16,92,76,57,30.28,30.03,17,5,21,0.02
2013-2-5,44,36,29,35,29,23,93,76,63,30.25,30.01,14,4,19,0.00
2013-2-6,40,35,29,32,26,23,82,72,63,30.47,30.17,11,3,13,0.00
2013-2-7,63,45,31,46,34,26,86,67,35,30.41,30.06,11,3,14,0.02
2013-2-8,51,38,30,49,31,25,96,78,67,30.52,30.06,17,6,24,0.08
2013-2-9,45,34,23,26,22,18,84,63,43,30.58,30.34,12,3,14,0.00
2013-2-10,53,45,35,50,36,20,92,70,51,30.34,29.95,30,10,34,0.18
2013-2-11,54,47,36,51,33,25,91,60,43,30.32,29.92,28,11,37,0.81
2013-2-12,51,39,28,29,26,21,79,60,33,30.36,30.13,13,2,16,0.00
2013-2-13,42,35,31,34,28,25,88,76,61,30.14,29.88,13,5,17,0.01
2013-2-14,41,34,32,31,30,28,87,85,65,30.27,30.01,8,5,10,0.01
2013-2-15,44,35,27,31,24,12,85,66,28,30.42,30.11,15,3,19,0.00
2013-2-16,34,27,21,16,9,-2,75,49,25,30.39,30.19,13,4,19,0.00
2013-2-17,25,18,17,12,5,2,69,55,46,30.36,30.25,6,2,9,0.00
2013-2-18,58,24,17,43,10,3,83,57,37,30.30,29.81,33,5,41,0.41
2013-2-19,49,33,26,44,22,7,90,63,45,30.28,29.73,35,12,45,0.77
2013-2-20,34,26,18,14,6,1,64,44,27,30.42,30.14,11,5,16,0.00
2013-2-21,36,28,19,28,17,9,86,64,46,30.42,30.05,16,3,23,0.01
2013-2-22,42,37,32,38,33,27,99,86,69,30.58,29.81,19,4,23,0.13
2013-2-23,46,36,28,27,23,20,76,60,36,30.12,29.95,13,4,14,0.00
2013-2-24,48,34,22,26,22,17,80,62,38,30.27,29.97,8,2,10,0.00
2013-2-25,51,38,26,24,22,18,79,54,31,30.22,29.94,15,4,19,0.00
2013-2-26,48,44,39,46,38,22,97,81,45,29.93,29.33,15,6,21,0.40
2013-2-27,46,46,46,43,43,43,89,89,89,29.53,29.53,8,8,13,0.40
2013-2-28,46,46,46,43,43,43,89,89,89,29.53,29.53,8,8,13,0.40